GFA125 VRMM-VCBI

Flight info

Callsign GFA125
Flight time 1h 10m
Altitude 37000
Route HOKEY1B HOKEY M512 TELIG LALUM1A
Aircraft A321/M-SDE3FGHIRWY/LB1

Departure

Time 2026-05-04 02:52
Airport Velana International Airport (VRMM)

Arrival

Time 2026-05-04 04:02
Airport Bandaranaike International Colombo Airport (VCBI)
Time Latitude Longitude Altitude Speed Heading
2026-05-04 02:30 4.18631 73.52796 14 ft 0 kts 269°
2026-05-04 02:40 4.18631 73.52797 8 ft 1 kts 269°
2026-05-04 02:40 4.18630 73.52821 12 ft 4 kts 280°
2026-05-04 02:40 4.18622 73.52846 16 ft 4 kts 309°
2026-05-04 02:40 4.18605 73.52858 15 ft 2 kts 359°
2026-05-04 02:41 4.18603 73.52858 15 ft 0 kts 359°
2026-05-04 02:43 4.18604 73.52858 15 ft 1 kts 359°
2026-05-04 02:44 4.18615 73.52858 15 ft 2 kts 359°
2026-05-04 02:44 4.18635 73.52858 15 ft 3 kts 359°
2026-05-04 02:44 4.18662 73.52860 15 ft 4 kts 19°
2026-05-04 02:44 4.18682 73.52883 14 ft 5 kts 69°
2026-05-04 02:45 4.18700 73.52917 17 ft 6 kts 40°
2026-05-04 02:45 4.18745 73.52924 17 ft 7 kts
2026-05-04 02:45 4.18799 73.52923 14 ft 8 kts 359°
2026-05-04 02:45 4.18859 73.52922 14 ft 10 kts 359°
2026-05-04 02:46 4.18932 73.52920 14 ft 11 kts 359°
2026-05-04 02:46 4.19017 73.52918 14 ft 13 kts 359°
2026-05-04 02:46 4.19114 73.52917 14 ft 15 kts 359°
2026-05-04 02:46 4.19222 73.52915 14 ft 17 kts 359°
2026-05-04 02:47 4.19345 73.52913 14 ft 19 kts 359°
2026-05-04 02:47 4.19483 73.52911 14 ft 21 kts 359°
2026-05-04 02:47 4.19635 73.52907 14 ft 23 kts 359°
2026-05-04 02:47 4.19802 73.52905 13 ft 25 kts 359°
2026-05-04 02:48 4.19983 73.52901 13 ft 27 kts 359°
2026-05-04 02:48 4.20179 73.52898 13 ft 29 kts 359°
2026-05-04 02:48 4.20359 73.52895 14 ft 25 kts 359°
2026-05-04 02:48 4.20539 73.52892 14 ft 27 kts 359°
2026-05-04 02:49 4.20704 73.52889 14 ft 18 kts 359°
2026-05-04 02:49 4.20833 73.52894 14 ft 8 kts 14°
2026-05-04 02:49 4.20860 73.52902 14 ft 4 kts 14°
2026-05-04 02:49 4.20892 73.52910 14 ft 5 kts 14°
2026-05-04 02:50 4.20921 73.52934 14 ft 6 kts 57°
2026-05-04 02:50 4.20928 73.52982 15 ft 8 kts 89°
2026-05-04 02:50 4.20928 73.53038 16 ft 8 kts 91°
2026-05-04 02:50 4.20921 73.53096 17 ft 9 kts 126°
2026-05-04 02:51 4.20831 73.53105 17 ft 25 kts 180°
2026-05-04 02:51 4.20408 73.53105 16 ft 94 kts 179°
2026-05-04 02:51 4.19566 73.53104 14 ft 146 kts 179°
2026-05-04 02:51 4.18433 73.53084 194 ft 169 kts 186°
2026-05-04 02:52 4.17253 73.53071 819 ft 170 kts 184°
2026-05-04 02:52 4.16074 73.53075 1389 ft 170 kts 185°
2026-05-04 02:52 4.14885 73.53082 1907 ft 174 kts 184°
2026-05-04 02:52 4.13613 73.53085 2184 ft 193 kts 184°
2026-05-04 02:53 4.12221 73.53085 2342 ft 213 kts 183°
2026-05-04 02:53 4.10640 73.53084 2472 ft 237 kts 183°
2026-05-04 02:53 4.08926 73.53085 2787 ft 258 kts 183°
2026-05-04 02:53 4.07097 73.53089 3437 ft 265 kts 182°
2026-05-04 02:54 4.05247 73.53094 4200 ft 268 kts 182°
2026-05-04 02:54 4.03366 73.53098 4961 ft 272 kts 182°
2026-05-04 02:54 4.01463 73.53106 5709 ft 276 kts 180°
2026-05-04 02:54 3.99585 73.53562 6412 ft 285 kts 155°
2026-05-04 02:55 3.97283 73.56737 7731 ft 298 kts 97°
2026-05-04 02:55 3.97232 73.58811 8445 ft 299 kts 90°
2026-05-04 02:55 3.97244 73.60905 9143 ft 301 kts 90°
2026-05-04 02:56 3.97251 73.62999 9881 ft 302 kts 90°
2026-05-04 02:56 3.97254 73.65127 10313 ft 314 kts 90°
2026-05-04 02:56 3.97255 73.67389 10444 ft 336 kts 90°
2026-05-04 02:56 3.97260 73.69798 10607 ft 354 kts 90°
2026-05-04 02:57 3.97266 73.72296 11079 ft 361 kts 90°
2026-05-04 02:57 3.97323 73.74829 11607 ft 366 kts 84°
2026-05-04 02:57 3.97818 73.77339 12182 ft 369 kts 72°
2026-05-04 02:57 3.98784 73.79697 12750 ft 373 kts 64°
2026-05-04 02:58 3.99905 73.82060 13295 ft 376 kts 64°
2026-05-04 02:58 4.01036 73.84443 13893 ft 379 kts 64°
2026-05-04 02:58 4.02171 73.86842 14381 ft 383 kts 64°
2026-05-04 02:58 4.03317 73.89272 14900 ft 386 kts 64°
2026-05-04 02:59 4.04463 73.91711 15410 ft 389 kts 64°
2026-05-04 02:59 4.05620 73.94172 15897 ft 392 kts 64°
2026-05-04 02:59 4.06785 73.96655 16415 ft 395 kts 64°
2026-05-04 02:59 4.07943 73.99123 16877 ft 399 kts 64°
2026-05-04 03:00 4.09131 74.01643 17367 ft 402 kts 64°
2026-05-04 03:00 4.10332 74.04186 17808 ft 405 kts 64°
2026-05-04 03:00 4.11542 74.06753 18298 ft 407 kts 64°
2026-05-04 03:00 4.12756 74.09328 18681 ft 410 kts 64°
2026-05-04 03:01 4.13976 74.11920 19086 ft 412 kts 64°
2026-05-04 03:01 4.15198 74.14525 19471 ft 415 kts 64°
2026-05-04 03:01 4.16428 74.17143 19855 ft 417 kts 64°
2026-05-04 03:01 4.17666 74.19782 20248 ft 419 kts 63°
2026-05-04 03:02 4.18893 74.22399 20616 ft 421 kts 65°
2026-05-04 03:02 4.20139 74.25059 21014 ft 423 kts 63°
2026-05-04 03:02 4.21400 74.27745 21370 ft 426 kts 64°
2026-05-04 03:02 4.22667 74.30440 21747 ft 428 kts 63°
2026-05-04 03:03 4.23510 74.32231 21978 ft 430 kts 63°
2026-05-04 03:03 4.25213 74.35843 22481 ft 432 kts 64°
2026-05-04 03:03 4.26501 74.38573 22783 ft 435 kts 64°
2026-05-04 03:03 4.27375 74.40427 23037 ft 436 kts 64°
2026-05-04 03:04 4.28658 74.43151 23359 ft 439 kts 64°
2026-05-04 03:04 4.29964 74.45923 23676 ft 441 kts 64°
2026-05-04 03:04 4.31272 74.48704 23973 ft 443 kts 64°
2026-05-04 03:04 4.32590 74.51510 24258 ft 444 kts 64°
2026-05-04 03:05 4.33902 74.54308 24565 ft 446 kts 64°
2026-05-04 03:05 4.35227 74.57134 24846 ft 447 kts 64°
2026-05-04 03:05 4.36551 74.59953 25148 ft 449 kts 64°
2026-05-04 03:05 4.37884 74.62785 25426 ft 450 kts 64°
2026-05-04 03:06 4.39226 74.65631 25724 ft 452 kts 64°
2026-05-04 03:06 4.40568 74.68485 25992 ft 454 kts 64°
2026-05-04 03:06 4.41914 74.71352 26289 ft 455 kts 64°
2026-05-04 03:06 4.43264 74.74230 26553 ft 457 kts 64°
2026-05-04 03:07 4.44598 74.77069 26832 ft 458 kts 64°
2026-05-04 03:07 4.45957 74.79957 27102 ft 459 kts 65°
2026-05-04 03:07 4.47322 74.82868 27373 ft 461 kts 65°
2026-05-04 03:07 4.48685 74.85780 27631 ft 462 kts 65°
2026-05-04 03:08 4.50055 74.88703 27898 ft 464 kts 65°
2026-05-04 03:08 4.51430 74.91638 28138 ft 465 kts 65°
2026-05-04 03:08 4.52812 74.94576 28391 ft 467 kts 65°
2026-05-04 03:08 4.54202 74.97526 28623 ft 468 kts 65°
2026-05-04 03:09 4.55589 75.00489 28859 ft 470 kts 65°
2026-05-04 03:09 4.56977 75.03455 29088 ft 471 kts 65°
2026-05-04 03:09 4.58374 75.06434 29327 ft 473 kts 65°
2026-05-04 03:09 4.59759 75.09379 29530 ft 474 kts 65°
2026-05-04 03:10 4.61186 75.12419 29763 ft 476 kts 65°
2026-05-04 03:10 4.62577 75.15394 29971 ft 478 kts 65°
2026-05-04 03:10 4.63987 75.18413 30171 ft 479 kts 65°
2026-05-04 03:10 4.65402 75.21434 30448 ft 478 kts 65°
2026-05-04 03:11 4.66817 75.24449 30743 ft 476 kts 65°
2026-05-04 03:11 4.68225 75.27445 31039 ft 475 kts 65°
2026-05-04 03:11 4.69627 75.30431 31344 ft 474 kts 65°
2026-05-04 03:11 4.71020 75.33407 31645 ft 472 kts 65°
2026-05-04 03:12 4.72417 75.36393 31962 ft 471 kts 65°
2026-05-04 03:12 4.73808 75.39365 32264 ft 470 kts 65°
2026-05-04 03:12 4.75203 75.42339 32583 ft 468 kts 65°
2026-05-04 03:12 4.76587 75.45295 32889 ft 468 kts 65°
2026-05-04 03:13 4.77991 75.48222 33204 ft 466 kts 64°
2026-05-04 03:13 4.79430 75.51090 33524 ft 465 kts 63°
2026-05-04 03:13 4.80934 75.54002 33827 ft 464 kts 63°
2026-05-04 03:13 4.82416 75.56829 34088 ft 464 kts 63°
2026-05-04 03:14 4.83914 75.59687 34365 ft 462 kts 63°
2026-05-04 03:14 4.85399 75.62547 34620 ft 462 kts 64°
2026-05-04 03:14 4.86868 75.65404 34906 ft 460 kts 64°
2026-05-04 03:14 4.88327 75.68269 35177 ft 459 kts 64°
2026-05-04 03:15 4.89773 75.71118 35457 ft 458 kts 64°
2026-05-04 03:15 4.91218 75.73958 35731 ft 457 kts 64°
2026-05-04 03:15 4.92655 75.76785 36016 ft 455 kts 64°
2026-05-04 03:15 4.94094 75.79614 36249 ft 455 kts 64°
2026-05-04 03:16 4.95529 75.82438 36493 ft 455 kts 64°
2026-05-04 03:16 4.96970 75.85265 36700 ft 455 kts 64°
2026-05-04 03:16 4.98412 75.88088 36893 ft 454 kts 63°
2026-05-04 03:17 5.01273 75.93673 36948 ft 451 kts 64°
2026-05-04 03:17 5.04130 75.99265 36945 ft 450 kts 64°
2026-05-04 03:18 5.06975 76.04854 36950 ft 450 kts 64°
2026-05-04 03:18 5.09821 76.10440 36948 ft 450 kts 64°
2026-05-04 03:19 5.12016 76.16290 36938 ft 449 kts 75°
2026-05-04 03:19 5.13849 76.22294 36934 ft 451 kts 73°
2026-05-04 03:20 5.15694 76.28280 36939 ft 451 kts 74°
2026-05-04 03:20 5.17551 76.34293 36944 ft 452 kts 73°
2026-05-04 03:21 5.19402 76.40331 36929 ft 452 kts 74°
2026-05-04 03:21 5.21255 76.46381 36923 ft 454 kts 73°
2026-05-04 03:22 5.23111 76.52450 36916 ft 456 kts 73°
2026-05-04 03:22 5.24974 76.58502 36919 ft 458 kts 74°
2026-05-04 03:23 5.26862 76.64617 36925 ft 459 kts 74°
2026-05-04 03:23 5.28740 76.70741 36930 ft 460 kts 73°
2026-05-04 03:24 5.30620 76.76895 36932 ft 460 kts 73°
2026-05-04 03:24 5.32492 76.83031 36937 ft 460 kts 73°
2026-05-04 03:25 5.34374 76.89179 36931 ft 461 kts 74°
2026-05-04 03:25 5.36252 76.95326 36933 ft 462 kts 73°
2026-05-04 03:26 5.38142 77.01497 36931 ft 462 kts 73°
2026-05-04 03:26 5.40033 77.07648 36936 ft 463 kts 74°
2026-05-04 03:27 5.41916 77.13827 36941 ft 463 kts 74°
2026-05-04 03:27 5.43804 77.20009 36942 ft 463 kts 74°
2026-05-04 03:28 5.45680 77.26161 36946 ft 464 kts 73°
2026-05-04 03:28 5.47566 77.32357 36945 ft 464 kts 73°
2026-05-04 03:29 5.49453 77.38545 36939 ft 463 kts 74°
2026-05-04 03:29 5.51337 77.44739 36935 ft 463 kts 74°
2026-05-04 03:30 5.53220 77.50897 36940 ft 464 kts 74°
2026-05-04 03:30 5.55114 77.57087 36943 ft 464 kts 73°
2026-05-04 03:31 5.57003 77.63275 36942 ft 464 kts 73°
2026-05-04 03:31 5.58888 77.69479 36945 ft 464 kts 74°
2026-05-04 03:32 5.60764 77.75669 36938 ft 463 kts 74°
2026-05-04 03:32 5.62645 77.81835 36945 ft 462 kts 74°
2026-05-04 03:33 5.64513 77.87956 36942 ft 461 kts 74°
2026-05-04 03:33 5.66379 77.94120 36933 ft 460 kts 74°
2026-05-04 03:34 5.68643 78.00130 36937 ft 461 kts 61°
2026-05-04 03:34 5.72414 78.05329 36933 ft 462 kts 52°
2026-05-04 03:35 5.76431 78.10359 36931 ft 462 kts 52°
2026-05-04 03:35 5.80404 78.15367 36929 ft 462 kts 52°
2026-05-04 03:36 5.84406 78.20417 36932 ft 462 kts 52°
2026-05-04 03:36 5.88418 78.25478 36924 ft 462 kts 52°
2026-05-04 03:37 5.92436 78.30528 36921 ft 462 kts 52°
2026-05-04 03:37 5.96453 78.35575 36929 ft 462 kts 52°
2026-05-04 03:38 6.00441 78.40588 36919 ft 463 kts 52°
2026-05-04 03:38 6.04462 78.45650 36919 ft 463 kts 52°
2026-05-04 03:39 6.08478 78.50723 36920 ft 464 kts 53°
2026-05-04 03:39 6.12501 78.55798 36926 ft 464 kts 51°
2026-05-04 03:40 6.17284 78.60149 36925 ft 465 kts 38°
2026-05-04 03:40 6.19851 78.62137 36427 ft 467 kts 38°
2026-05-04 03:40 6.22422 78.64140 35485 ft 475 kts 38°
2026-05-04 03:40 6.25038 78.66186 34661 ft 480 kts 38°
2026-05-04 03:41 6.27690 78.68263 33711 ft 486 kts 38°
2026-05-04 03:41 6.30371 78.70362 32759 ft 490 kts 38°
2026-05-04 03:41 6.33062 78.72468 31767 ft 493 kts 38°
2026-05-04 03:41 6.35785 78.74593 30968 ft 493 kts 38°
2026-05-04 03:42 6.38477 78.76694 30278 ft 491 kts 38°
2026-05-04 03:42 6.41098 78.78879 29585 ft 487 kts 44°
2026-05-04 03:42 6.43343 78.81410 28947 ft 482 kts 51°
2026-05-04 03:42 6.45432 78.84024 28313 ft 478 kts 51°
2026-05-04 03:43 6.47496 78.86592 27691 ft 474 kts 51°
2026-05-04 03:43 6.49561 78.89153 27075 ft 469 kts 51°
2026-05-04 03:43 6.51631 78.91724 26456 ft 465 kts 51°
2026-05-04 03:43 6.53655 78.94241 25851 ft 458 kts 51°
2026-05-04 03:44 6.55607 78.96671 25281 ft 446 kts 51°
2026-05-04 03:44 6.57546 78.99089 24813 ft 432 kts 51°
2026-05-04 03:44 6.59414 79.01420 24155 ft 424 kts 51°
2026-05-04 03:44 6.61219 79.03672 23654 ft 413 kts 51°
2026-05-04 03:45 6.62999 79.05892 23108 ft 402 kts 51°
2026-05-04 03:45 6.64718 79.08056 22635 ft 390 kts 51°
2026-05-04 03:45 6.66375 79.10164 22183 ft 380 kts 51°
2026-05-04 03:45 6.68014 79.12259 21752 ft 379 kts 51°
2026-05-04 03:46 6.69638 79.14339 21303 ft 377 kts 51°
2026-05-04 03:46 6.71253 79.16409 20874 ft 376 kts 51°
2026-05-04 03:46 6.72868 79.18476 20427 ft 373 kts 52°
2026-05-04 03:46 6.74470 79.20521 19992 ft 371 kts 51°
2026-05-04 03:47 6.76060 79.22551 19546 ft 369 kts 52°
2026-05-04 03:47 6.77647 79.24577 19092 ft 367 kts 51°
2026-05-04 03:47 6.79224 79.26586 18637 ft 366 kts 52°
2026-05-04 03:47 6.80803 79.28598 18170 ft 365 kts 52°
2026-05-04 03:48 6.82376 79.30605 17662 ft 364 kts 52°
2026-05-04 03:48 6.83933 79.32595 17201 ft 361 kts 52°
2026-05-04 03:48 6.85482 79.34573 16749 ft 358 kts 52°
2026-05-04 03:48 6.87002 79.36513 16294 ft 356 kts 52°
2026-05-04 03:49 6.88533 79.38465 15838 ft 354 kts 52°
2026-05-04 03:49 6.90053 79.40404 15390 ft 352 kts 52°
2026-05-04 03:49 6.91562 79.42333 14943 ft 350 kts 52°
2026-05-04 03:49 6.93075 79.44247 14475 ft 348 kts 49°
2026-05-04 03:50 6.94825 79.45920 14042 ft 347 kts 38°
2026-05-04 03:50 6.96728 79.47408 13575 ft 346 kts 38°
2026-05-04 03:50 6.98622 79.48898 13095 ft 343 kts 38°
2026-05-04 03:50 7.00494 79.50376 12652 ft 341 kts 38°
2026-05-04 03:51 7.02351 79.51848 12177 ft 339 kts 39°
2026-05-04 03:51 7.04202 79.53316 11717 ft 337 kts 39°
2026-05-04 03:51 7.06041 79.54772 11264 ft 335 kts 39°
2026-05-04 03:51 7.07835 79.56194 10897 ft 330 kts 39°
2026-05-04 03:52 7.09637 79.57622 10490 ft 327 kts 39°
2026-05-04 03:52 7.11394 79.59008 10383 ft 314 kts 39°
2026-05-04 03:52 7.13082 79.60338 10255 ft 302 kts 39°
2026-05-04 03:52 7.14711 79.61628 10035 ft 295 kts 39°
2026-05-04 03:53 7.16303 79.62890 9952 ft 289 kts 39°
2026-05-04 03:53 7.17890 79.64145 9669 ft 291 kts 39°
2026-05-04 03:53 7.19478 79.65402 9281 ft 289 kts 39°
2026-05-04 03:53 7.21054 79.66651 8912 ft 288 kts 39°
2026-05-04 03:54 7.22097 79.67480 8660 ft 287 kts 39°
2026-05-04 03:54 7.23671 79.68731 8293 ft 288 kts 39°
2026-05-04 03:54 7.25240 79.69977 7930 ft 288 kts 39°
2026-05-04 03:54 7.26815 79.71227 7568 ft 288 kts 38°
2026-05-04 03:55 7.28894 79.72879 7071 ft 288 kts 38°
2026-05-04 03:55 7.29959 79.73725 6818 ft 289 kts 38°
2026-05-04 03:55 7.31521 79.74964 6589 ft 282 kts 38°
2026-05-04 03:55 7.33048 79.76170 6153 ft 280 kts 38°
2026-05-04 03:56 7.34603 79.77397 5668 ft 279 kts 38°
2026-05-04 03:56 7.36109 79.78582 5281 ft 277 kts 38°
2026-05-04 03:56 7.37623 79.79773 4898 ft 275 kts 38°
2026-05-04 03:56 7.39123 79.80985 4518 ft 276 kts 44°
2026-05-04 03:57 7.40124 79.82574 4274 ft 266 kts 75°
2026-05-04 03:57 7.40241 79.84391 3926 ft 258 kts 107°
2026-05-04 03:57 7.39524 79.85959 3877 ft 248 kts 128°
2026-05-04 03:57 7.38520 79.87381 3827 ft 249 kts 129°
2026-05-04 03:58 7.36500 79.90226 3723 ft 249 kts 129°
2026-05-04 03:58 7.35402 79.91563 3667 ft 246 kts 141°
2026-05-04 03:58 7.34072 79.92627 3624 ft 244 kts 145°
2026-05-04 03:59 7.32727 79.93676 3567 ft 244 kts 146°
2026-05-04 03:59 7.31381 79.94730 3516 ft 245 kts 145°
2026-05-04 03:59 7.30025 79.95765 3461 ft 244 kts 151°
2026-05-04 03:59 7.28471 79.96178 3426 ft 233 kts 187°
2026-05-04 04:00 7.27005 79.95556 3025 ft 233 kts 221°
2026-05-04 04:00 7.25893 79.94363 2519 ft 233 kts 223°
2026-05-04 04:00 7.24669 79.93369 2092 ft 217 kts 216°
2026-05-04 04:00 7.23496 79.92491 1601 ft 207 kts 216°
2026-05-04 04:01 7.22370 79.91635 892 ft 199 kts 217°
2026-05-04 04:01 7.21309 79.90823 570 ft 184 kts 216°
2026-05-04 04:01 7.20363 79.90098 389 ft 157 kts 216°
2026-05-04 04:01 7.19579 79.89494 148 ft 145 kts 216°
2026-05-04 04:02 7.18804 79.88903 40 ft 129 kts 216°
2026-05-04 04:02 7.18188 79.88430 27 ft 85 kts 218°
2026-05-04 04:02 7.17936 79.88239 29 ft 16 kts 217°
2026-05-04 04:02 7.17847 79.88246 30 ft 14 kts 129°
2026-05-04 04:03 7.17825 79.88274 29 ft 5 kts 128°
2026-05-04 04:03 7.17802 79.88304 28 ft 6 kts 128°
2026-05-04 04:03 7.17793 79.88343 28 ft 6 kts 87°
2026-05-04 04:03 7.17812 79.88371 28 ft 5 kts 39°
2026-05-04 04:04 7.17836 79.88390 28 ft 5 kts 38°
2026-05-04 04:04 7.17856 79.88418 28 ft 6 kts 76°
2026-05-04 04:04 7.17840 79.88459 27 ft 7 kts 126°
2026-05-04 04:04 7.17801 79.88473 27 ft 6 kts 213°
2026-05-04 04:05 7.17770 79.88452 27 ft 5 kts 217°
2026-05-04 04:05 7.17743 79.88431 27 ft 3 kts 217°
2026-05-04 04:05 7.17736 79.88426 27 ft 0 kts 217°